Vorticity
2 4 7 12 19 13 7 0 -2 0 1 2 2 2 1 2 3 6 6 2 2 6 5 3 2 1 4 5 7 11 8 7 5 3 3 3 4 2 2 2 3 3 4
5 5 3 5 8 11 15 16 16 4 -2 -2 0 1 2 3 1 3 3 8 4 2 5 6 5 2 2 3 5 6 10 9 7 6 4 4 4 3 1 2 2 2 3
3 2 3 3 2 2 1 6 17 19 14 4 -2 -1 0 1 3 3 2 3 7 7 2 4 5 6 3 1 2 5 6 8 8 8 7 5 4 4 4 2 2 2 2
2 2 2 2 3 4 6 4 5 6 17 20 15 5 1 -0 0 1 3 2 1 3 8 4 3 4 5 5 2 1 3 6 6 7 6 6 6 5 4 4 4 3 3
4 4 1 1 3 2 3 4 5 6 3 6 16 22 19 12 5 2 1 1 4 3 2 5 6 3 4 5 6 3 2 2 3 6 5 5 5 4 4 4 3 3 3
3 3 6 5 4 4 2 3 4 3 4 3 3 4 5 11 20 18 7 2 1 -1 2 5 4 5 3 3 6 7 6 3 2 3 3 5 5 4 4 4 4 4 3
4 4 3 2 1 4 2 4 2 2 2 2 4 5 4 3 2 5 12 25 11 6 4 1 3 3 5 4 2 6 7 7 6 3 3 3 3 4 5 5 4 4 4
5 5 5 4 2 2 1 2 1 3 1 2 2 2 3 5 5 4 3 3 10 22 9 5 3 4 4 3 5 3 0 7 8 7 7 5 4 4 5 5 4 4 4
5 5 4 6 6 5 5 3 4 2 2 3 2 2 3 2 3 3 4 5 4 4 9 12 5 2 4 3 4 5 7 4 -0 3 7 8 6 5 4 4 4 5 5
4 4 4 5 5 6 7 6 4 4 3 2 2 2 2 3 2 1 3 5 5 6 7 6 13 10 4 3 2 1 3 6 8 7 4 0 3 6 7 7 5 4 4
3 4 5 5 4 6 6 5 6 7 7 5 4 2 3 4 4 3 5 3 2 4 4 7 11 11 10 6 2 4 3 1 3 4 4 5 5 4 4 2 2 4 6
6 4 3 4 4 4 4 4 6 5 4 6 8 7 8 4 1 5 3 1 6 2 3 2 2 8 10 13 10 3 6 4 2 3 3 5 4 4 3 5 6 6 6
14 14 11 9 9 7 5 4 4 4 4 5 6 5 6 3 9 5 3 3 3 2 4 3 5 3 8 9 10 12 7 1 1 3 2 -0 3 4 4 3 2 3 3
6 8 10 11 12 13 15 15 15 15 12 10 6 3 5 8 3 2 6 6 4 4 2 1 4 4 2 4 6 5 8 12 12 8 4 5 5 4 5 5 4 3 3
2 3 4 5 4 3 3 5 4 5 7 9 13 14 13 9 5 7 7 4 4 5 6 6 5 7 5 5 6 6 2 2 5 10 13 11 8 6 4 5 3 3 4
6 6 5 4 4 4 4 3 4 5 5 3 4 4 5 7 11 13 13 11 11 4 4 5 4 3 3 6 5 3 5 7 6 5 3 6 9 8 10 11 12 12 10
4 1 2 2 2 2 2 2 2 4 4 4 2 2 4 6 5 7 11 1 2 5 5 8 4 3 7 6 3 4 6 5 3 7 9 6 8 14 14 10 11 16 13
2 1 1 1 4 5 4 4 4 4 5 4 2 3 3 3 2 7 6 9 12 9 5 4 4 4 3 4 7 5 3 1 2 5 4 10 7 2 4 3 5 5 5
2 3 3 4 4 4 2 2 4 4 4 5 6 4 5 5 5 6 3 6 7 10 12 13 6 4 6 7 6 5 5 6 8 7 8 5 4 9 8 8 7 7 4
4 5 6 6 7 7 5 4 4 4 5 3 5 5 5 5 5 3 4 1 3 3 4 6 7 7 6 8 7 7 3 4 7 5 4 3 3 4 3 3 4 5 5
11 9 8 7 8 8 10 11 12 10 8 8 8 6 5 6 6 5 6 5 5 6 4 1 8 6 14 15 3 11 5 -3 5 -0 -1 3 5 4 3 -1 -1 1 3
8 8 8 8 9 8 8 8 7 7 7 7 5 6 9 8 8 9 9 6 9 6 -0 6 0 4 2 7 6 14 9 4 -4 1 7 8 8 7 6 5 3 3 5
7 7 8 8 10 9 7 7 8 6 9 9 9 3 3 5 5 5 5 6 6 10 12 1 5 9 8 3 8 2 12 5 -6 5 -2 5 11 7 8 8 8 5 7
22 29 27 21 14 12 12 13 16 22 22 14 7 15 21 26 4 5 7 7 15 16 5 8 5 -3 4 3 13 6 -10 -3 -2 -1 9 13 11 8 8 9 10 9 10
11 16 18 14 14 30 30 25 18 20 26 20 19 7 14 10 33 28 4 4 1 -3 11 8 9 12 5 4 -7 -4 0 2 4 10 -1 1 7 11 8 9 10 8 4
12 17 31 36 28 16 8 8 18 30 23 11 31 21 24 16 19 14 52 16 6 7 2 5 5 0 1 2 8 12 7 10 4 3 7 10 4 15 9 7 10 10 12
Height
5880 5880 5880 5880 5881 5881 5882 5883 5884 5884 5885 5886 5887 5887 5888 5888 5888 5888 5887 5888 5888 5888 5888 5888 5887 5886 5886 5885 5884 5884 5884 5884 5884 5884 5884 5883 5882 5881 5880 5879 5878 5877 5876
5878 5879 5879 5879 5879 5880 5880 5880 5881 5881 5882 5883 5884 5885 5886 5886 5887 5887 5886 5887 5887 5887 5887 5887 5887 5886 5885 5885 5885 5884 5883 5883 5883 5883 5883 5882 5881 5880 5880 5879 5878 5877 5876
5877 5878 5878 5878 5878 5878 5879 5878 5878 5879 5879 5880 5881 5883 5883 5884 5885 5885 5885 5885 5885 5886 5885 5885 5885 5885 5885 5885 5884 5884 5883 5881 5881 5881 5881 5881 5880 5880 5879 5878 5878 5877 5876
5874 5875 5876 5876 5877 5877 5877 5877 5877 5878 5877 5877 5878 5879 5880 5881 5882 5882 5883 5883 5883 5883 5884 5884 5884 5884 5884 5883 5883 5883 5882 5881 5880 5880 5879 5879 5879 5878 5878 5877 5876 5876 5875
5871 5872 5873 5874 5875 5875 5875 5875 5876 5876 5876 5876 5876 5876 5877 5878 5878 5879 5879 5880 5880 5881 5881 5881 5881 5881 5882 5882 5881 5881 5880 5879 5879 5879 5877 5877 5877 5876 5876 5875 5874 5874 5873
5868 5869 5869 5871 5872 5872 5872 5873 5873 5874 5874 5875 5875 5875 5875 5875 5875 5875 5875 5876 5876 5876 5877 5878 5878 5878 5879 5879 5879 5878 5878 5877 5877 5877 5876 5875 5875 5874 5874 5873 5872 5872 5871
5864 5864 5865 5867 5868 5868 5869 5869 5870 5871 5871 5871 5872 5872 5872 5872 5872 5872 5871 5871 5872 5873 5873 5873 5874 5874 5875 5875 5876 5875 5875 5874 5873 5873 5873 5872 5872 5871 5871 5870 5870 5869 5868
5860 5860 5860 5862 5863 5864 5864 5866 5866 5867 5868 5868 5868 5869 5869 5869 5869 5869 5869 5869 5868 5869 5869 5869 5869 5869 5870 5871 5872 5872 5872 5871 5871 5870 5869 5869 5869 5868 5868 5867 5866 5865 5865
5854 5855 5856 5857 5857 5859 5860 5861 5862 5863 5863 5864 5864 5865 5865 5865 5865 5866 5866 5866 5865 5866 5865 5865 5865 5865 5865 5865 5866 5867 5867 5868 5866 5867 5866 5865 5865 5864 5863 5862 5862 5861 5860
5847 5849 5850 5851 5853 5854 5855 5855 5856 5857 5857 5858 5859 5859 5860 5860 5860 5861 5861 5861 5861 5861 5861 5861 5860 5860 5860 5861 5861 5862 5862 5862 5861 5862 5862 5861 5861 5860 5859 5857 5857 5856 5855
5842 5844 5845 5845 5846 5848 5849 5849 5850 5851 5852 5852 5854 5854 5854 5854 5855 5855 5856 5855 5855 5856 5856 5855 5856 5855 5855 5855 5855 5856 5856 5856 5856 5856 5856 5856 5855 5855 5854 5853 5852 5851 5850
5835 5837 5838 5840 5840 5841 5842 5843 5844 5845 5845 5846 5846 5847 5847 5848 5848 5849 5849 5850 5850 5850 5850 5850 5850 5850 5850 5850 5850 5850 5851 5850 5850 5850 5850 5849 5849 5848 5848 5847 5846 5846 5845
5830 5830 5831 5832 5833 5834 5834 5835 5836 5838 5838 5839 5839 5839 5840 5841 5841 5842 5843 5843 5843 5844 5843 5844 5844 5844 5844 5844 5844 5844 5845 5844 5844 5843 5843 5844 5843 5842 5841 5841 5840 5839 5839
5826 5826 5825 5825 5826 5827 5828 5828 5828 5829 5830 5831 5831 5831 5833 5833 5834 5835 5835 5835 5836 5836 5837 5837 5837 5837 5838 5838 5837 5837 5838 5838 5838 5837 5837 5836 5836 5835 5835 5834 5834 5833 5832
5820 5821 5821 5821 5820 5820 5821 5821 5821 5821 5821 5821 5822 5823 5823 5825 5825 5826 5827 5827 5827 5828 5829 5829 5829 5830 5831 5831 5831 5830 5830 5831 5831 5831 5830 5829 5829 5829 5828 5827 5826 5826 5825
5814 5814 5814 5813 5813 5812 5813 5813 5813 5814 5814 5814 5814 5814 5815 5816 5816 5817 5817 5818 5818 5818 5821 5821 5822 5822 5823 5824 5824 5824 5823 5823 5824 5825 5824 5823 5822 5820 5820 5819 5818 5818 5818
5806 5805 5805 5805 5804 5804 5804 5804 5804 5804 5805 5806 5807 5807 5806 5808 5808 5808 5809 5810 5810 5810 5811 5813 5814 5814 5814 5814 5816 5816 5815 5815 5816 5816 5816 5816 5815 5813 5812 5812 5810 5810 5809
5798 5797 5796 5796 5796 5796 5795 5794 5794 5794 5794 5795 5796 5797 5797 5797 5798 5799 5800 5801 5801 5801 5802 5802 5803 5803 5805 5806 5807 5807 5808 5808 5808 5808 5808 5808 5808 5807 5805 5804 5803 5803 5802
5791 5789 5788 5786 5784 5783 5784 5784 5783 5782 5783 5783 5783 5784 5785 5786 5786 5787 5788 5790 5790 5792 5793 5793 5794 5794 5794 5796 5798 5797 5798 5798 5798 5799 5799 5800 5800 5799 5798 5798 5797 5795 5794
5779 5778 5777 5775 5773 5772 5771 5770 5770 5769 5769 5769 5769 5770 5771 5771 5772 5774 5775 5778 5780 5781 5782 5784 5785 5784 5785 5786 5787 5787 5787 5787 5788 5789 5790 5790 5790 5790 5790 5790 5788 5787 5785
5765 5764 5762 5761 5757 5755 5754 5754 5752 5752 5751 5752 5753 5753 5755 5756 5758 5759 5762 5764 5766 5769 5771 5773 5773 5774 5776 5776 5775 5776 5777 5777 5779 5780 5780 5781 5781 5780 5781 5781 5780 5779 5777
5752 5750 5747 5745 5742 5739 5736 5734 5733 5733 5734 5734 5733 5734 5735 5738 5741 5744 5747 5750 5752 5755 5758 5760 5761 5763 5765 5765 5766 5766 5768 5769 5770 5770 5771 5772 5772 5770 5770 5769 5769 5769 5768
5738 5734 5731 5727 5724 5720 5716 5714 5712 5711 5712 5712 5711 5712 5713 5715 5719 5723 5729 5733 5736 5740 5744 5746 5748 5752 5753 5753 5754 5755 5757 5760 5760 5761 5762 5762 5762 5761 5758 5757 5758 5757 5757
5724 5720 5715 5711 5707 5703 5698 5695 5691 5690 5689 5689 5689 5690 5691 5694 5699 5705 5711 5716 5719 5723 5728 5732 5735 5739 5739 5741 5742 5743 5745 5749 5750 5753 5753 5752 5751 5751 5748 5746 5746 5744 5743
5715 5709 5703 5698 5693 5687 5682 5677 5671 5668 5667 5667 5668 5671 5672 5675 5680 5686 5694 5698 5702 5707 5714 5718 5721 5725 5726 5727 5729 5731 5733 5736 5736 5738 5741 5742 5740 5739 5738 5737 5735 5733 5731
5705 5700 5693 5685 5679 5674 5668 5660 5652 5645 5642 5644 5645 5649 5653 5658 5663 5668 5672 5680 5686 5692 5699 5704 5706 5711 5713 5714 5716 5718 5720 5722 5724 5723 5725 5726 5726 5727 5726 5725 5724 5721 5719